Weather History for Lamar, CO

Change the Weather History Date:

Thursday, January 23, 2014

  Actual Average Record
Temperature  
Mean Temperature 6 °F 30 °F  
Max Temperature 21 °F 46 °F 71 °F (1972)
Min Temperature -9 °F 14 °F -10 °F (1930)
Degree Days  
Heating Degree Days 59 35  
Month to date heating degree days 805 839  
Since 1 July heating degree days 2980 3152  
Cooling Degree Days 0 0  
Month to date cooling degree days 0 0  
Year to date cooling degree days 0 0  
Moisture  
Dew Point 3 °F    
Average Humidity 76    
Maximum Humidity 90    
Minimum Humidity 62    
Precipitation  
Precipitation 0.02 in 0.01 in 1.25 in (1921)
Month to date precipitation 0.06 0.18  
Year to date precipitation 0.06 0.18  
Sea Level Pressure  
Sea Level Pressure 30.58 in    
Wind  
Wind Speed 8 mph (East)    
Max Wind Speed 22 mph    
Max Gust Speed 25 mph    
Visibility 4 miles    
Events Snow    
T = Trace of Precipitation, MM = Missing Value Source: NWS Daily Summary

Daily Weather History Graph

Daily Weather History Graph

Search for Another Location

Airport:

Trip Planner

Search our weather history database for the weather conditions in past years. The results will help you decide how hot, cold, wet, or windy it might be!

Date:

Astronomy

Jan. 23, 2014 Rise Set
Actual Time 7:01 AM MST 5:03 PM MST
Civil Twilight 6:33 AM MST 5:32 PM MST
Nautical Twilight 6:01 AM MST 6:04 PM MST
Astronomical Twilight 5:30 AM MST 6:35 PM MST
Moon No Moon Rise 10:45 AM MST (1/23)
Length of Visible Light 10h 58m
Length of Day
10h 01m
Waning Gibbous, 54% of the Moon is Illuminated
Jan 23
Waning Gibbous
Jan 23
Last Quarter
Jan 30
New
Feb 6
First Quarter
Feb 14
Full

Hourly Weather History & Observations

Time (MST) Temp. Windchill Dew Point Humidity Pressure Visibility Wind Dir Wind Speed Gust Speed Precip Events Conditions
12:03 AM 21.0 °F 6.6 °F 10.0 °F 63% 30.33 in 10.0 mi East 17.3 mph 24.2 mph N/A   Overcast
12:51 AM 19.4 °F 5.5 °F 10.4 °F 68% 30.36 in 2.5 mi East 15.0 mph 24.2 mph 0.00 in Snow Light Snow
12:53 AM 19.0 °F 5.0 °F 10.9 °F 71% 30.41 in 2.0 mi East 15.0 mph 24.2 mph 0.00 in Snow Light Snow
12:59 AM 18.0 °F 3.6 °F 10.9 °F 74% 30.37 in 1.8 mi East 15.0 mph - 0.00 in Snow Light Snow
1:39 AM 17.1 °F 1.5 °F 10.9 °F 77% 30.37 in 1.2 mi East 17.3 mph - 0.00 in Snow Light Snow
1:48 AM 15.8 °F 0.3 °F 10.4 °F 79% 30.38 in 1.8 mi East 16.1 mph 25.3 mph 0.00 in Snow Light Snow
1:53 AM 15.1 °F 0.5 °F 10.0 °F 80% 30.43 in 2.0 mi East 13.8 mph - 0.00 in Snow Light Snow
2:05 AM 15.1 °F -1.1 °F 8.1 °F 74% 30.40 in 2.5 mi East 17.3 mph 25.3 mph 0.00 in Snow Light Snow
2:32 AM 14.0 °F -2.0 °F 8.1 °F 77% 30.41 in 1.8 mi East 16.1 mph - 0.00 in Snow Light Snow
2:49 AM 12.2 °F -5.3 °F 6.8 °F 79% 30.42 in 2.0 mi East 18.4 mph - 0.00 in Snow Light Snow
2:53 AM 12.9 °F -2.8 °F 7.0 °F 77% 30.48 in 1.8 mi East 15.0 mph - 0.00 in Snow Light Snow
3:21 AM 10.9 °F -6.5 °F 6.1 °F 81% 30.44 in 1.0 mi ENE 17.3 mph - 0.00 in Snow Light Snow
3:30 AM 10.9 °F -4.1 °F 6.1 °F 81% 30.44 in 1.5 mi ENE 12.7 mph - 0.00 in Snow Light Snow
3:45 AM 10.0 °F -6.5 °F 5.0 °F 80% 30.45 in 1.5 mi ENE 15.0 mph - 0.00 in Snow Light Snow
3:53 AM 10.0 °F -6.5 °F 5.0 °F 80% 30.53 in 1.5 mi ENE 15.0 mph - 0.00 in Snow Light Snow
3:59 AM 10.0 °F -6.5 °F 5.0 °F 80% 30.46 in 1.5 mi ENE 15.0 mph - 0.00 in Snow Light Snow
4:04 AM 10.0 °F -3.7 °F 5.0 °F 80% 30.46 in 1.2 mi ENE 10.4 mph - 0.00 in Snow Light Snow
4:23 AM 9.0 °F -7.9 °F 3.9 °F 80% 30.47 in 1.2 mi ENE 15.0 mph - 0.00 in Snow Light Snow
4:30 AM 9.0 °F -6.6 °F 3.9 °F 80% 30.48 in 1.2 mi ENE 12.7 mph - 0.00 in Snow Light Snow
4:42 AM 8.1 °F -9.0 °F 3.9 °F 83% 30.48 in 1.0 mi ENE 15.0 mph - 0.00 in Snow Light Snow
4:49 AM 8.6 °F -6.3 °F 3.2 °F 79% 30.49 in 0.8 mi ENE 11.5 mph - 0.00 in Snow Light Snow
4:53 AM 8.1 °F -7.7 °F 3.9 °F 83% 30.58 in 0.8 mi ENE 12.7 mph - 0.00 in Snow Light Snow
5:09 AM 8.1 °F -8.4 °F 3.9 °F 83% 30.49 in 1.0 mi ENE 13.8 mph - 0.00 in Snow Light Snow
5:40 AM 8.1 °F -8.4 °F 3.0 °F 80% 30.52 in 1.2 mi ENE 13.8 mph - 0.00 in Snow Light Snow
5:53 AM 8.1 °F -7.7 °F 3.0 °F 80% 30.63 in 1.0 mi ENE 12.7 mph - 0.00 in Snow Light Snow
6:08 AM 8.1 °F -7.0 °F 3.0 °F 80% 30.54 in 1.0 mi ENE 11.5 mph - 0.00 in Snow Light Snow
6:33 AM 7.0 °F -6.6 °F 3.0 °F 84% 30.56 in 1.2 mi ENE 9.2 mph - 0.01 in Snow Light Snow
6:53 AM 7.0 °F -6.6 °F 3.0 °F 84% 30.69 in 1.0 mi ENE 9.2 mph - 0.01 in Snow Light Snow
7:04 AM 7.0 °F -7.5 °F 1.9 °F 80% 30.58 in 1.5 mi ENE 10.4 mph - 0.00 in Snow Light Snow
7:13 AM 7.0 °F -5.7 °F 1.9 °F 80% 30.58 in 1.0 mi ENE 8.1 mph - 0.00 in Snow Light Snow
7:22 AM 7.0 °F -4.5 °F 1.9 °F 80% 30.59 in 0.5 mi East 6.9 mph - 0.00 in Snow Snow
7:35 AM 7.0 °F -5.7 °F 1.9 °F 80% 30.59 in 0.5 mi ENE 8.1 mph - 0.00 in Snow Snow
7:53 AM 7.0 °F -6.6 °F 1.9 °F 80% 30.72 in 0.5 mi ENE 9.2 mph - 0.01 in Snow Snow
8:00 AM 7.0 °F -5.7 °F 1.9 °F 80% 30.61 in 0.8 mi ENE 8.1 mph - 0.00 in Snow Light Snow
8:09 AM 7.0 °F -8.3 °F 1.9 °F 80% 30.62 in 1.2 mi ENE 11.5 mph - 0.00 in Snow Light Snow
8:27 AM 7.0 °F -7.5 °F 1.9 °F 80% 30.62 in 1.5 mi ENE 10.4 mph - 0.00 in Snow Light Snow
8:36 AM 7.0 °F -7.5 °F 1.0 °F 77% 30.63 in 3.0 mi ENE 10.4 mph - 0.00 in Snow Light Snow
8:53 AM 7.0 °F -6.6 °F 1.0 °F 77% 30.75 in 5.0 mi East 9.2 mph - 0.00 in   Haze
9:31 AM 8.1 °F -3.2 °F 1.9 °F 76% 30.65 in 2.0 mi East 6.9 mph - 0.00 in Snow Light Snow
9:42 AM 8.1 °F -2.0 °F 1.9 °F 76% 30.66 in 1.8 mi ENE 5.8 mph - 0.00 in Snow Light Snow
9:53 AM 9.0 °F -0.9 °F 1.9 °F 73% 30.80 in 2.0 mi ENE 5.8 mph - 0.00 in Snow Light Snow
10:28 AM 10.0 °F - 1.0 °F 67% 30.67 in 1.8 mi Calm Calm - 0.00 in Snow Light Snow
10:35 AM 10.0 °F - 3.0 °F 73% 30.67 in 2.0 mi Calm Calm - 0.00 in Snow Light Snow
10:53 AM 10.9 °F - 3.0 °F 70% 30.81 in 2.0 mi Calm Calm - 0.00 in Snow Light Snow
11:07 AM 10.0 °F - 1.0 °F 67% 30.67 in 3.0 mi Calm Calm - 0.00 in Snow Light Snow
11:53 AM 12.0 °F - 3.0 °F 67% 30.79 in 7.0 mi Calm Calm - 0.00 in   Overcast
12:53 PM 12.9 °F - 5.0 °F 71% 30.79 in 10.0 mi Calm Calm - N/A   Clear
1:53 PM 12.0 °F 2.7 °F 3.9 °F 70% 30.76 in 10.0 mi WSW 5.8 mph - N/A   Clear
2:53 PM 12.0 °F 1.5 °F 3.0 °F 67% 30.75 in 10.0 mi SW 6.9 mph - N/A   Clear
3:53 PM 10.9 °F -0.8 °F 3.9 °F 73% 30.75 in 10.0 mi SW 8.1 mph - N/A   Clear
4:53 PM 7.0 °F -3.3 °F 1.0 °F 77% 30.74 in 10.0 mi WSW 5.8 mph - N/A   Clear
5:53 PM -0.0 °F -15.3 °F -4.0 °F 83% 30.76 in 10.0 mi SSW 9.2 mph - N/A   Clear
6:53 PM -0.9 °F -15.3 °F -5.1 °F 83% 30.75 in 10.0 mi SSW 8.1 mph - N/A   Clear
7:53 PM -2.9 °F -17.7 °F -7.1 °F 82% 30.75 in 10.0 mi SSW 8.1 mph - 0.00 in   Clear
8:53 PM -5.1 °F -20.4 °F -9.9 °F 80% 30.73 in 10.0 mi SSW 8.1 mph - 0.00 in   Clear
9:53 PM -6.0 °F -14.7 °F -11.0 °F 79% 30.71 in 10.0 mi WSW 3.5 mph - N/A   Clear
10:53 PM -7.1 °F -21.4 °F -9.9 °F 87% 30.68 in 10.0 mi SW 6.9 mph - N/A   Clear
11:53 PM -6.0 °F -20.1 °F -11.0 °F 79% 30.66 in 10.0 mi SSW 6.9 mph - N/A   Clear